TimeIST,TemperatureF,Dew PointF,Humidity,Sea Level PressureIn,VisibilityMPH,Wind Direction,Wind SpeedMPH,Gust SpeedMPH,PrecipitationIn,Events,Conditions,WindDirDegrees,DateUTC
12:00 AM,53.6,51.8,94,30.24,6.2,NE,5.8,-,N/A,,Overcast,50,2012-10-22 23:00:00
12:30 AM,53.6,51.8,94,30.24,6.2,ENE,6.9,-,N/A,,Overcast,60,2012-10-22 23:30:00
1:00 AM,53,51,92,30.27,9,ENE,8.9,,,,Mist,60,2012-10-23 00:00:00
1:00 AM,53.6,51.8,94,30.24,6.2,ENE,9.2,-,N/A,,Overcast,60,2012-10-23 00:00:00
1:30 AM,53.6,51.8,94,30.27,2.5,ENE,8.1,-,N/A,,Light Drizzle,60,2012-10-23 00:30:00
2:00 AM,53.6,51.8,94,30.27,1.9,ENE,6.9,-,N/A,,Light Drizzle,60,2012-10-23 01:00:00
2:30 AM,53.6,51.8,94,30.27,1.9,ENE,9.2,-,N/A,,Light Drizzle,60,2012-10-23 01:30:00
3:00 AM,53.6,51.8,94,30.27,1.9,NE,6.9,-,N/A,,Light Drizzle,50,2012-10-23 02:00:00
3:30 AM,53.6,51.8,94,30.27,1.9,NE,6.9,-,N/A,,Light Drizzle,50,2012-10-23 02:30:00
4:00 AM,53.6,53.6,100,30.24,1.9,NE,8.1,-,N/A,,Light Drizzle,40,2012-10-23 03:00:00
4:30 AM,53.6,53.6,100,30.24,1.2,NE,6.9,-,N/A,,Light Drizzle,50,2012-10-23 03:30:00
5:00 AM,53.6,53.6,100,30.27,0.9,NE,8.1,-,N/A,,Light Drizzle,50,2012-10-23 04:00:00
5:30 AM,53.6,53.6,100,30.27,0.9,NE,8.1,-,N/A,,Light Drizzle,50,2012-10-23 04:30:00
6:00 AM,53.6,53.6,100,30.27,0.9,NE,10.4,-,N/A,,Light Drizzle,40,2012-10-23 05:00:00
6:30 AM,53.6,53.6,100,30.27,0.9,NE,9.2,-,N/A,,Light Drizzle,50,2012-10-23 05:30:00
7:00 AM,53,53,99,30.28,1,NE,11.2,,,Rain,Light Drizzle,50,2012-10-23 06:00:00
7:00 AM,53.6,53.6,100,30.27,0.9,NE,11.5,-,N/A,,Light Drizzle,50,2012-10-23 06:00:00
7:30 AM,53.6,53.6,100,30.27,0.9,NE,9.2,-,N/A,,Light Drizzle,50,2012-10-23 06:30:00
8:00 AM,53.6,53.6,100,30.27,0.9,ENE,9.2,-,N/A,,Light Drizzle,60,2012-10-23 07:00:00
8:30 AM,53.6,53.6,100,30.30,0.5,ENE,9.2,-,N/A,Fog,Fog,70,2012-10-23 07:30:00
9:00 AM,53.6,53.6,100,30.30,0.5,ENE,8.1,-,N/A,Fog,Light Fog,70,2012-10-23 08:00:00
9:30 AM,53.6,53.6,100,30.30,0.5,ENE,8.1,-,N/A,Fog,Light Fog,70,2012-10-23 08:30:00
10:00 AM,53.6,53.6,100,30.30,0.7,NE,8.1,-,N/A,,Light Drizzle,50,2012-10-23 09:00:00
10:30 AM,53.6,53.6,100,30.33,1.0,NE,9.2,-,N/A,,Drizzle,50,2012-10-23 09:30:00
11:00 AM,53.6,53.6,100,30.33,1.5,NE,10.4,-,N/A,,Drizzle,50,2012-10-23 10:00:00
11:30 AM,53.6,53.6,100,30.33,1.5,ENE,9.2,-,N/A,,Drizzle,60,2012-10-23 10:30:00
12:00 PM,53.6,53.6,100,30.33,2.5,NE,8.1,-,N/A,,Drizzle,50,2012-10-23 11:00:00
12:30 PM,53.6,53.6,100,30.33,2.5,NE,9.2,-,N/A,,Drizzle,40,2012-10-23 11:30:00
1:00 PM,53,53,99,30.34,2,NE,13.4,,,Rain,Light Drizzle,50,2012-10-23 12:00:00
1:00 PM,53.6,53.6,100,30.33,2.2,NE,12.7,-,N/A,,Drizzle,50,2012-10-23 12:00:00
1:30 PM,53.6,53.6,100,30.33,1.9,NE,11.5,-,N/A,,Drizzle,50,2012-10-23 12:30:00
2:00 PM,53.6,51.8,94,30.33,2.5,NE,10.4,-,N/A,,Mostly Cloudy,40,2012-10-23 13:00:00
2:30 PM,53.6,51.8,94,30.33,3.7,NE,10.4,-,N/A,,Mostly Cloudy,40,2012-10-23 13:30:00
3:00 PM,53.6,51.8,94,30.33,6.2,NE,10.4,-,N/A,,Mostly Cloudy,40,2012-10-23 14:00:00
3:30 PM,53.6,51.8,94,30.33,6.2,NE,10.4,-,N/A,,Mostly Cloudy,40,2012-10-23 14:30:00
4:00 PM,53.6,51.8,94,30.30,6.2,NE,10.4,-,N/A,,Mostly Cloudy,40,2012-10-23 15:00:00
4:30 PM,53.6,51.8,94,30.30,6.2,NNE,9.2,-,N/A,,Mostly Cloudy,30,2012-10-23 15:30:00
5:00 PM,53.6,51.8,94,30.30,6.2,NNE,13.8,-,N/A,,Mostly Cloudy,30,2012-10-23 16:00:00
5:30 PM,53.6,51.8,94,30.30,6.2,NE,12.7,-,N/A,,Mostly Cloudy,40,2012-10-23 16:30:00
6:00 PM,51.8,51.8,100,30.30,6.2,NNE,11.5,-,N/A,,Mostly Cloudy,30,2012-10-23 17:00:00
6:30 PM,53.6,51.8,94,30.30,6.2,NE,11.5,-,N/A,,Mostly Cloudy,40,2012-10-23 17:30:00
7:00 PM,53,51,91,30.34,11,NE,13.4,,,Rain,Light Drizzle,40,2012-10-23 18:00:00
7:00 PM,51.8,51.8,100,30.33,6.2,NE,12.7,-,N/A,,Light Drizzle,40,2012-10-23 18:00:00
7:30 PM,51.8,51.8,100,30.33,6.2,NNE,11.5,-,N/A,,Light Drizzle,30,2012-10-23 18:30:00
8:00 PM,51.8,51.8,100,30.33,6.2,NNE,11.5,-,N/A,,Light Drizzle,30,2012-10-23 19:00:00
8:30 PM,51.8,50.0,94,30.33,6.2,NNE,10.4,-,N/A,,Light Drizzle,20,2012-10-23 19:30:00
9:00 PM,51.8,50.0,94,30.33,6.2,NNE,11.5,-,N/A,,Mostly Cloudy,30,2012-10-23 20:00:00
9:30 PM,51.8,50.0,94,30.33,6.2,NNE,11.5,-,N/A,,Light Drizzle,20,2012-10-23 20:30:00
10:00 PM,51.8,50.0,94,30.33,6.2,NNE,10.4,-,N/A,,Light Drizzle,20,2012-10-23 21:00:00
10:30 PM,51.8,50.0,94,30.30,6.2,NNE,9.2,-,N/A,,Light Drizzle,20,2012-10-23 21:30:00
11:00 PM,53.6,50.0,88,30.30,6.2,NNE,10.4,-,N/A,,Light Drizzle,20,2012-10-23 22:00:00
11:30 PM,51.8,50.0,94,30.30,6.2,NNE,10.4,-,N/A,,Light Drizzle,20,2012-10-23 22:30:00